Miscellaneous Local Product
Issued by NWS Hastings, NE

Home | Current Version | Previous Version | Graphics & Text | Print | Product List | Glossary On
Versions: 1 2 3 4 5 6 7 8 9 10 11 12 13 14 15 16 17 18 19 20 21 22 23 24 25 26 27 28 29 30 31 32 33 34 35 36 37 38 39 40 41 42 43 44 45 46 47 48 49 50
000
AXUS43 KGID 191402
MISGRI

GID CWA HOURLY WEATHER ROUNDUP
NATIONAL WEATHER SERVICE HASTINGS NE
900 AM CDT SUN OCT 19 2014

NOTE: "FAIR" INDICATES FEW OR NO CLOUDS BELOW 12,000 FEET WITH NO
SIGNIFICANT WEATHER AND/OR OBSTRUCTIONS TO VISIBILITY.

...SOUTH CENTRAL NEBRASKA...

CITY           SKY/WX    TMP DP  RH WIND       PRES   REMARKS
GRAND ISLAND   SUNNY     51  41  68 S17G24    30.04S
HASTINGS       SUNNY     46  40  79 S9        30.06S
KEARNEY        SUNNY     45  39  81 S10       30.06R
ORD            SUNNY     47  41  80 SW3       30.01S
YORK           SUNNY     45  41  87 S10       30.06S
AURORA         SUNNY     46  40  80 S13       30.05S
LEXINGTON      SUNNY     46  43  87 S12       30.04S
HOLDREGE       SUNNY     43  40  90 CALM      30.05S
HEBRON         SUNNY     49  42  77 S8        30.10R

...NEBRASKA PANHANDLE...

CITY           SKY/WX    TMP DP  RH WIND       PRES   REMARKS
CHADRON        CLEAR     38  36  92 W3        30.06R
ALLIANCE       CLEAR     35  33  92 CALM      30.05R
SCOTTSBLUFF    CLEAR     41  38  89 NW8       30.08R
SIDNEY         CLEAR     44  37  76 NW6       30.07R

...WESTERN AND NORTH CENTRAL NEBRASKA...

CITY           SKY/WX    TMP DP  RH WIND       PRES   REMARKS
VALENTINE      CLEAR     44  40  85 W5        29.99R
AINSWORTH      MOSUNNY   46  40  81 SW5       29.99R
ONEILL         SUNNY     46  43  89 SW8       29.98R
BROKEN BOW     SUNNY     47  42  83 S3        30.02R
IMPERIAL       CLEAR     40  37  89 CALM      30.03R
NORTH PLATTE   SUNNY     45  40  82 CALM      30.03R
MCCOOK         SUNNY     44  40  85 CALM      30.04S

...EASTERN NEBRASKA...

CITY           SKY/WX    TMP DP  RH WIND       PRES   REMARKS
NORFOLK        MOSUNNY   49  41  74 S13       30.01F
SO SIOUX CITY  MOSUNNY   48  41  76 S6        30.02F
TEKAMAH        SUNNY     49  43  80 S10       30.06S
COLUMBUS       SUNNY     48  39  71 SW9       30.06S
ALBION         MOSUNNY   47  41  78 S3        30.02S
OMAHA EPPLEY   MOSUNNY   47  42  83 S9        30.09F
OFFUTT AFB     SUNNY     43  43 100 SE5       30.09S
MILLARD        SUNNY     48  42  82 S6        30.09R
LINCOLN        SUNNY     49  42  77 S10       30.09F
NEBRASKA CITY  SUNNY     45  43  92 S9        30.11S
BEATRICE       SUNNY     46  42  88 S8        30.11R
FALLS CITY     SUNNY     45  42  89 S8        30.13S

...NORTHERN KANSAS...

CITY           SKY/WX    TMP DP  RH WIND       PRES   REMARKS
GOODLAND       SUNNY     45  43  93 CALM      30.05R
HILL CITY      SUNNY     50  43  77 S6        30.06S
NORTON         SUNNY     48  41  76 S3        30.05R
PHILLIPSBURG   SUNNY     45  45 100 E5        30.08R
SMITH CENTER   SUNNY     45  41  87 SE7       30.09R
BELOIT         SUNNY     46  45  93 SE6       30.10S
HAYS           SUNNY     48  39  71 S6        30.08S
RUSSELL        SUNNY     49  44  83 S13       30.08R
CONCORDIA      MOSUNNY   50  45  83 S16       30.10S
SALINA         MOSUNNY   49  45  86 S8        30.14R
TOPEKA         MOSUNNY   46  45  96 CALM      30.17S



USA.gov is the U.S. government's official web portal to all federal, state and local government web resources and services.